MOZHAYETS 4 (RS-22)

Last updated on Sun Jul 06 2025 00:03:04 GMT+0000 (Coordinated Universal Time)

1 27939U 03042A 25186.63201484 .00000815 00000+0 13702-3 0 9998 2 27939 98.3299 356.7157 0010181 289.6745 140.7663 14.72402595164533
UTC large
Height (km)
Speed (km/s)
/
Latitude / Longitude
Inclination (degrees)
Orbital Period (minutes)
Azimuth
Elevation
Range (km)
Doppler Factor

Next 0 passes for location: London (51.5072 / 0.1276)

Sorry there are no passes over London.